Time,TemperatureF,DewpointF,PressureIn,WindDirection,WindDirectionDegrees,WindSpeedMPH,WindSpeedGustMPH,Humidity,HourlyPrecipIn,Conditions,Clouds,dailyrainin,SolarRadiationWatts/m^2,SoftwareType,DateUTC
2013-03-13 00:22:00,42.0,41.0,-100.00,SSW,212,0.0,0.0,96,0.00,,,0.00,0.000000,,2013-03-13 05:22:00,
2013-03-13 00:32:00,42.0,41.0,-100.00,SSW,212,0.0,0.0,96,0.00,,,0.00,0.000000,,2013-03-13 05:32:00,
2013-03-13 00:42:00,42.0,41.0,-100.00,SSW,212,0.0,0.0,96,0.00,,,0.00,0.000000,,2013-03-13 05:42:00,
2013-03-13 00:51:00,41.0,40.0,-100.00,West,277,0.0,2.0,98,0.00,,,0.00,0.000000,,2013-03-13 05:51:00,
2013-03-13 01:23:00,41.0,40.0,-100.00,West,277,0.0,2.0,98,0.00,,,0.00,0.000000,,2013-03-13 06:23:00,
2013-03-13 01:32:00,41.0,40.0,-100.00,West,277,0.0,2.0,98,0.00,,,0.00,0.000000,,2013-03-13 06:32:00,
2013-03-13 01:42:00,41.0,40.0,-100.00,West,277,0.0,2.0,98,0.00,,,0.00,0.000000,,2013-03-13 06:42:00,
2013-03-13 01:51:00,40.0,40.0,-100.00,SW,223,0.0,2.0,99,0.00,,,0.00,0.000000,,2013-03-13 06:51:00,
2013-03-13 02:12:00,40.0,40.0,-100.00,SW,223,0.0,2.0,99,0.00,,,0.00,0.000000,,2013-03-13 07:12:00,
2013-03-13 02:22:00,40.0,40.0,-100.00,SW,223,0.0,2.0,99,0.00,,,0.00,0.000000,,2013-03-13 07:22:00,
2013-03-13 02:32:00,40.0,40.0,-100.00,SW,223,0.0,2.0,99,0.00,,,0.00,0.000000,,2013-03-13 07:32:00,
2013-03-13 02:42:00,40.0,40.0,-100.00,SW,223,0.0,2.0,99,0.00,,,0.00,0.000000,,2013-03-13 07:42:00,
2013-03-13 02:51:00,39.0,39.0,-100.00,NW,311,1.0,3.0,100,0.00,,,0.00,0.000000,,2013-03-13 07:51:00,
2013-03-13 03:22:00,39.0,39.0,-100.00,NW,311,1.0,3.0,100,0.00,,,0.00,0.000000,,2013-03-13 08:22:00,
2013-03-13 03:32:00,39.0,39.0,-100.00,NW,311,1.0,3.0,100,0.00,,,0.00,0.000000,,2013-03-13 08:32:00,
2013-03-13 03:43:00,39.0,39.0,-100.00,NW,311,1.0,3.0,100,0.00,,,0.00,0.000000,,2013-03-13 08:43:00,
2013-03-13 03:51:00,40.0,39.0,-100.00,WNW,283,1.0,6.0,95,0.00,,,0.00,0.000000,,2013-03-13 08:51:00,
2013-03-13 04:12:00,40.0,39.0,-100.00,WNW,283,1.0,6.0,95,0.00,,,0.00,0.000000,,2013-03-13 09:12:00,
2013-03-13 04:22:00,40.0,39.0,-100.00,WNW,283,1.0,6.0,95,0.00,,,0.00,0.000000,,2013-03-13 09:22:00,
2013-03-13 04:32:00,40.0,39.0,-100.00,WNW,283,1.0,6.0,95,0.00,,,0.00,0.000000,,2013-03-13 09:32:00,
2013-03-13 04:42:00,40.0,39.0,-100.00,WNW,283,1.0,6.0,95,0.00,,,0.00,0.000000,,2013-03-13 09:42:00,
2013-03-13 04:51:00,40.0,39.0,-100.00,WSW,250,1.0,4.0,97,0.00,,,0.00,0.000000,,2013-03-13 09:51:00,
2013-03-13 05:12:00,40.0,39.0,-100.00,WSW,250,1.0,4.0,97,0.00,,,0.00,0.000000,,2013-03-13 10:12:00,
2013-03-13 05:22:00,40.0,39.0,-100.00,WSW,250,1.0,4.0,97,0.00,,,0.00,0.000000,,2013-03-13 10:22:00,
2013-03-13 05:32:00,40.0,39.0,-100.00,WSW,250,1.0,4.0,97,0.00,,,0.00,0.000000,,2013-03-13 10:32:00,
2013-03-13 05:42:00,40.0,39.0,-100.00,WSW,250,1.0,4.0,97,0.00,,,0.00,0.000000,,2013-03-13 10:42:00,
2013-03-13 05:51:00,38.0,38.0,-100.00,West,262,0.0,2.0,100,0.00,,,0.00,0.000000,,2013-03-13 10:51:00,
2013-03-13 06:12:00,38.0,38.0,-100.00,West,262,0.0,2.0,100,0.00,,,0.00,0.000000,,2013-03-13 11:12:00,
2013-03-13 06:22:00,38.0,38.0,-100.00,West,262,0.0,2.0,100,0.00,,,0.00,0.000000,,2013-03-13 11:22:00,
2013-03-13 06:32:00,38.0,38.0,-100.00,West,262,0.0,2.0,100,0.00,,,0.00,0.000000,,2013-03-13 11:32:00,
2013-03-13 06:42:00,38.0,38.0,-100.00,West,262,0.0,2.0,100,0.00,,,0.00,0.000000,,2013-03-13 11:42:00,
2013-03-13 06:51:00,37.0,37.0,-100.00,WNW,294,0.0,2.0,100,0.00,,,0.00,0.000000,,2013-03-13 11:51:00,
2013-03-13 07:12:00,37.0,37.0,-100.00,WNW,294,0.0,2.0,100,0.00,,,0.00,0.000000,,2013-03-13 12:12:00,
2013-03-13 07:22:00,37.0,37.0,-100.00,WNW,294,0.0,2.0,100,0.00,,,0.00,0.000000,,2013-03-13 12:22:00,
2013-03-13 07:32:00,37.0,37.0,-100.00,WNW,294,0.0,2.0,100,0.00,,,0.00,0.000000,,2013-03-13 12:32:00,
2013-03-13 07:42:00,37.0,37.0,-100.00,WNW,294,0.0,2.0,100,0.00,,,0.00,0.000000,,2013-03-13 12:42:00,
2013-03-13 07:51:00,40.0,40.0,-100.00,WSW,241,0.0,0.0,100,0.00,,,0.00,31.000000,,2013-03-13 12:51:00,
2013-03-13 08:22:00,40.0,40.0,-100.00,WSW,241,0.0,0.0,100,0.00,,,0.00,31.000000,,2013-03-13 13:22:00,
2013-03-13 08:33:00,40.0,40.0,-100.00,WSW,241,0.0,0.0,100,0.00,,,0.00,31.000000,,2013-03-13 13:33:00,
2013-03-13 08:43:00,40.0,40.0,-100.00,WSW,241,0.0,0.0,100,0.00,,,0.00,31.000000,,2013-03-13 13:43:00,
2013-03-13 08:51:00,50.0,41.0,-100.00,NW,324,3.0,5.0,71,0.00,,,0.00,213.000000,,2013-03-13 13:51:00,
2013-03-13 09:12:00,50.0,41.0,-100.00,NW,324,3.0,5.0,71,0.00,,,0.00,213.000000,,2013-03-13 14:12:00,
2013-03-13 09:22:00,50.0,41.0,-100.00,NW,324,3.0,5.0,71,0.00,,,0.00,213.000000,,2013-03-13 14:22:00,
2013-03-13 09:33:00,50.0,41.0,-100.00,NW,324,3.0,5.0,71,0.00,,,0.00,213.000000,,2013-03-13 14:33:00,
2013-03-13 09:42:00,50.0,41.0,-100.00,NW,324,3.0,5.0,71,0.00,,,0.00,213.000000,,2013-03-13 14:42:00,
2013-03-13 09:51:00,57.0,38.0,-100.00,North,355,7.0,12.0,48,0.00,,,0.00,416.000000,,2013-03-13 14:51:00,
2013-03-13 10:12:00,57.0,38.0,-100.00,North,355,7.0,12.0,48,0.00,,,0.00,416.000000,,2013-03-13 15:12:00,
2013-03-13 10:22:00,57.0,38.0,-100.00,North,355,7.0,12.0,48,0.00,,,0.00,416.000000,,2013-03-13 15:22:00,
2013-03-13 10:32:00,57.0,38.0,-100.00,North,355,7.0,12.0,48,0.00,,,0.00,416.000000,,2013-03-13 15:32:00,
2013-03-13 10:42:00,57.0,38.0,-100.00,North,355,7.0,12.0,48,0.00,,,0.00,416.000000,,2013-03-13 15:42:00,
2013-03-13 10:51:00,60.0,37.0,-100.00,North,353,8.0,22.0,43,0.00,,,0.00,611.000000,,2013-03-13 15:51:00,
2013-03-13 11:22:00,60.0,37.0,-100.00,North,353,8.0,22.0,43,0.00,,,0.00,611.000000,,2013-03-13 16:22:00,
2013-03-13 11:32:00,60.0,37.0,-100.00,North,353,8.0,22.0,43,0.00,,,0.00,611.000000,,2013-03-13 16:32:00,
2013-03-13 11:42:00,60.0,37.0,-100.00,North,353,8.0,22.0,43,0.00,,,0.00,611.000000,,2013-03-13 16:42:00,
2013-03-13 11:51:00,62.0,35.0,-100.00,North,352,7.0,18.0,36,0.00,,,0.00,763.000000,,2013-03-13 16:51:00,
2013-03-13 12:12:00,62.0,35.0,-100.00,North,352,7.0,18.0,36,0.00,,,0.00,763.000000,,2013-03-13 17:12:00,
2013-03-13 12:22:00,62.0,35.0,-100.00,North,352,7.0,18.0,36,0.00,,,0.00,763.000000,,2013-03-13 17:22:00,
2013-03-13 12:32:00,62.0,35.0,-100.00,North,352,7.0,18.0,36,0.00,,,0.00,763.000000,,2013-03-13 17:32:00,
2013-03-13 12:42:00,62.0,35.0,-100.00,North,352,7.0,18.0,36,0.00,,,0.00,763.000000,,2013-03-13 17:42:00,
2013-03-13 12:51:00,65.0,29.0,-100.00,North,354,7.0,18.0,26,0.00,,,0.00,862.000000,,2013-03-13 17:51:00,
2013-03-13 13:22:00,65.0,29.0,-100.00,North,354,7.0,18.0,26,0.00,,,0.00,862.000000,,2013-03-13 18:22:00,
2013-03-13 13:33:00,65.0,29.0,-100.00,North,354,7.0,18.0,26,0.00,,,0.00,862.000000,,2013-03-13 18:33:00,
2013-03-13 13:42:00,65.0,29.0,-100.00,North,354,7.0,18.0,26,0.00,,,0.00,862.000000,,2013-03-13 18:42:00,
2013-03-13 13:51:00,66.0,21.0,-100.00,North,358,7.0,19.0,18,0.00,,,0.00,887.000000,,2013-03-13 18:51:00,
2013-03-13 14:22:00,66.0,21.0,-100.00,North,358,7.0,19.0,18,0.00,,,0.00,887.000000,,2013-03-13 19:22:00,
2013-03-13 14:32:00,66.0,21.0,-100.00,North,358,7.0,19.0,18,0.00,,,0.00,887.000000,,2013-03-13 19:32:00,
2013-03-13 14:43:00,66.0,21.0,-100.00,North,358,7.0,19.0,18,0.00,,,0.00,887.000000,,2013-03-13 19:43:00,
2013-03-13 14:51:00,66.0,21.0,-100.00,North,4,8.0,20.0,18,0.00,,,0.00,838.000000,,2013-03-13 19:51:00,
2013-03-13 15:22:00,66.0,21.0,-100.00,North,4,8.0,20.0,18,0.00,,,0.00,838.000000,,2013-03-13 20:22:00,
2013-03-13 15:32:00,66.0,21.0,-100.00,North,4,8.0,20.0,18,0.00,,,0.00,838.000000,,2013-03-13 20:32:00,
2013-03-13 15:42:00,66.0,21.0,-100.00,North,4,8.0,20.0,18,0.00,,,0.00,838.000000,,2013-03-13 20:42:00,
2013-03-13 15:51:00,67.0,19.0,-100.00,NNW,340,8.0,20.0,16,0.00,,,0.00,715.000000,,2013-03-13 20:51:00,
2013-03-13 16:12:00,67.0,19.0,-100.00,NNW,340,8.0,20.0,16,0.00,,,0.00,715.000000,,2013-03-13 21:12:00,
2013-03-13 16:22:00,67.0,19.0,-100.00,NNW,340,8.0,20.0,16,0.00,,,0.00,715.000000,,2013-03-13 21:22:00,
2013-03-13 16:33:00,67.0,19.0,-100.00,NNW,340,8.0,20.0,16,0.00,,,0.00,715.000000,,2013-03-13 21:33:00,
2013-03-13 16:42:00,67.0,19.0,-100.00,NNW,340,8.0,20.0,16,0.00,,,0.00,715.000000,,2013-03-13 21:42:00,
2013-03-13 16:51:00,67.0,19.0,-100.00,NNW,340,8.0,17.0,16,0.00,,,0.00,545.000000,,2013-03-13 21:51:00,
2013-03-13 17:22:00,67.0,19.0,-100.00,NNW,340,8.0,17.0,16,0.00,,,0.00,545.000000,,2013-03-13 22:22:00,
2013-03-13 17:32:00,67.0,19.0,-100.00,NNW,340,8.0,17.0,16,0.00,,,0.00,545.000000,,2013-03-13 22:32:00,
2013-03-13 17:42:00,67.0,19.0,-100.00,NNW,340,8.0,17.0,16,0.00,,,0.00,545.000000,,2013-03-13 22:42:00,
2013-03-13 17:51:00,65.0,19.0,-100.00,North,357,7.0,20.0,17,0.00,,,0.00,339.000000,,2013-03-13 22:51:00,
2013-03-13 18:12:00,65.0,19.0,-100.00,North,357,7.0,20.0,17,0.00,,,0.00,339.000000,,2013-03-13 23:12:00,
2013-03-13 18:22:00,65.0,19.0,-100.00,North,357,7.0,20.0,17,0.00,,,0.00,339.000000,,2013-03-13 23:22:00,
2013-03-13 18:32:00,65.0,19.0,-100.00,North,357,7.0,20.0,17,0.00,,,0.00,339.000000,,2013-03-13 23:32:00,
2013-03-13 18:42:00,65.0,19.0,-100.00,North,357,7.0,20.0,17,0.00,,,0.00,339.000000,,2013-03-13 23:42:00,
2013-03-13 18:51:00,60.0,22.0,-100.00,NNW,345,4.0,13.0,23,0.00,,,0.00,90.000000,,2013-03-13 23:51:00,
2013-03-13 19:22:00,60.0,22.0,-100.00,NNW,345,4.0,13.0,23,0.00,,,0.00,90.000000,,2013-03-14 00:22:00,
2013-03-13 19:32:00,60.0,22.0,-100.00,NNW,345,4.0,13.0,23,0.00,,,0.00,90.000000,,2013-03-14 00:32:00,
2013-03-13 19:42:00,60.0,22.0,-100.00,NNW,345,4.0,13.0,23,0.00,,,0.00,90.000000,,2013-03-14 00:42:00,
2013-03-13 19:51:00,52.0,27.0,-100.00,NW,318,2.0,9.0,38,0.00,,,0.00,2.000000,,2013-03-14 00:51:00,
2013-03-13 20:22:00,52.0,27.0,-100.00,NW,318,2.0,9.0,38,0.00,,,0.00,2.000000,,2013-03-14 01:22:00,
2013-03-13 20:32:00,52.0,27.0,-100.00,NW,318,2.0,9.0,38,0.00,,,0.00,2.000000,,2013-03-14 01:32:00,
2013-03-13 20:42:00,52.0,27.0,-100.00,NW,318,2.0,9.0,38,0.00,,,0.00,2.000000,,2013-03-14 01:42:00,
2013-03-13 20:51:00,48.0,28.0,-100.00,NNW,343,2.0,5.0,46,0.00,,,0.00,0.000000,,2013-03-14 01:51:00,
2013-03-13 21:22:00,48.0,28.0,-100.00,NNW,343,2.0,5.0,46,0.00,,,0.00,0.000000,,2013-03-14 02:22:00,
2013-03-13 21:32:00,48.0,28.0,-100.00,NNW,343,2.0,5.0,46,0.00,,,0.00,0.000000,,2013-03-14 02:32:00,
2013-03-13 21:42:00,48.0,28.0,-100.00,NNW,343,2.0,5.0,46,0.00,,,0.00,0.000000,,2013-03-14 02:42:00,
2013-03-13 21:51:00,48.0,25.0,-100.00,NNW,343,3.0,7.0,40,0.00,,,0.00,0.000000,,2013-03-14 02:51:00,
2013-03-13 22:12:00,48.0,25.0,-100.00,NNW,343,3.0,7.0,40,0.00,,,0.00,0.000000,,2013-03-14 03:12:00,
2013-03-13 22:23:00,48.0,25.0,-100.00,NNW,343,3.0,7.0,40,0.00,,,0.00,0.000000,,2013-03-14 03:23:00,
2013-03-13 22:32:00,48.0,25.0,-100.00,NNW,343,3.0,7.0,40,0.00,,,0.00,0.000000,,2013-03-14 03:32:00,
2013-03-13 22:42:00,48.0,25.0,-100.00,NNW,343,3.0,7.0,40,0.00,,,0.00,0.000000,,2013-03-14 03:42:00,
2013-03-13 22:51:00,47.0,25.0,-100.00,NW,325,2.0,7.0,42,0.00,,,0.00,0.000000,,2013-03-14 03:51:00,
2013-03-13 23:22:00,47.0,25.0,-100.00,NW,325,2.0,7.0,42,0.00,,,0.00,0.000000,,2013-03-14 04:22:00,
2013-03-13 23:32:00,47.0,25.0,-100.00,NW,325,2.0,7.0,42,0.00,,,0.00,0.000000,,2013-03-14 04:32:00,
2013-03-13 23:42:00,47.0,25.0,-100.00,NW,325,2.0,7.0,42,0.00,,,0.00,0.000000,,2013-03-14 04:42:00,
2013-03-13 23:51:00,44.0,29.0,-100.00,North,358,2.0,6.0,55,0.00,,,0.00,0.000000,,2013-03-14 04:51:00,